CW9861 Weather Reports


time (UTC)temp
C
wind
direction
speed
KPH
gust
KPH
rain 1hr
cm
rain 24hr
cm
rain mn
cm
humidity
%
barometer
mb
20260831181802 25 157 1.6 4.8 0.00 0.28 0.28 84 1013.4
20260831181302 25 170 1.6 4.8 0.00 0.28 0.28 83 1013.8
20260831173303 26 147 3.2 11.3 0.00 0.28 0.28 83 1013.4
20260831172803 26 253 3.2 11.3 0.00 0.28 0.28 82 1013.3
20260831172306 25 192 3.2 9.7 0.00 0.28 0.28 82 1013.4
20260831171802 25 172 3.2 11.3 0.00 0.28 0.28 83 1013.3
20260831171303 25 266 3.2 11.3 0.00 0.28 0.28 84 1013.3
20260831170803 25 205 4.8 11.3 0.00 0.28 0.28 83 1013.4
20260831170304 25 130 1.6 12.9 0.00 0.28 0.28 84 1013.4
20260831165802 25 226 3.2 11.3 0.00 0.28 0.28 82 1013.4
20260831165305 25 139 4.8 11.3 0.00 0.28 0.28 83 1013.6
20260831164803 25 224 4.8 12.9 0.00 0.28 0.28 86 1014.0
20260831164302 25 219 1.6 9.7 0.00 0.28 0.28 86 1014.0
20260831163802 25 242 3.2 9.7 0.00 0.28 0.28 85 1014.0
20260831163302 24 187 3.2 8.0 0.00 0.28 0.28 86 1013.8
20260831162803 24 208 3.2 12.9 0.00 0.28 0.28 88 1013.8
20260831162301 23 215 6.4 12.9 0.00 0.28 0.28 88 1013.9
20260831161802 23 200 3.2 14.5 0.00 0.28 0.28 89 1014.0
20260831161302 23 204 3.2 14.5 0.00 0.28 0.28 89 1014.2
20260831160803 23 199 1.6 11.3 0.00 0.28 0.28 90 1014.2
20260831160301 22 179 4.8 11.3 0.00 0.28 0.28 89 1014.3
20260831155803 22 271 1.6 9.7 0.00 0.28 0.28 90 1014.4
20260831155302 22 230 1.6 11.3 0.00 0.28 0.28 90 1014.3
20260831154802 22 225 4.8 11.3 0.00 0.28 0.28 90 1014.2
20260831154303 22 181 1.6 6.4 0.00 0.28 0.28 90 1014.2
20260831153802 22 143 1.6 8.0 0.00 0.28 0.28 91 1014.3
20260831153301 22 182 3.2 8.0 0.00 0.28 0.28 91 1014.4
20260831152801 22 232 1.6 6.4 0.03 0.28 0.28 91 1014.6
20260831152305 22 216 1.6 4.8 0.20 0.28 0.28 91 1014.3
20260831151802 22 175 1.6 4.8 0.20 0.28 0.28 91 1014.5
20260831143801 21 67 0.0 4.8 0.25 0.28 0.28 91 1015.1
20260831143301 21 67 1.6 4.8 0.25 0.28 0.28 91 1014.9
20260831142802 21 59 0.0 3.2 0.25 0.25 0.25 91 1014.6
20260831142305 21 59 0.0 0.0 0.08 0.08 0.08 91 1014.8
20260831141802 21 59 0.0 4.8 0.08 0.08 0.08 91 1015.0
20260831141302 21 46 3.2 4.8 0.08 0.08 0.08 91 1014.7
20260831140801 21 271 0.0 1.6 0.08 0.08 0.08 91 1014.6
20260831140302 21 271 0.0 0.0 0.05 0.08 0.05 91 1014.8
20260831135802 21 271 0.0 0.0 0.05 0.08 0.05 91 1014.8
20260831135302 21 271 0.0 0.0 0.05 0.08 0.05 90 1014.8
20260831134802 21 271 0.0 0.0 0.05 0.08 0.05 91 1014.8
20260831134302 21 271 0.0 0.0 0.05 0.08 0.05 91 1015.1
20260831133802 21 271 0.0 0.0 0.03 0.05 0.03 91 1015.2
20260831133302 21 271 0.0 0.0 0.03 0.05 0.03 91 1015.4
20260831132801 21 271 0.0 0.0 0.00 0.03 0.00 91 1015.4
20260831132306 21 271 0.0 0.0 0.00 0.03 0.00 91 1015.4
20260831131801 21 271 0.0 0.0 0.00 0.03 0.00 91 1015.2
20260831131302 21 271 0.0 0.0 0.00 0.03 0.00 90 1015.2
20260831130802 21 271 0.0 0.0 0.00 0.03 0.00 90 1015.0
20260831130305 21 271 0.0 1.6 0.00 0.03 0.00 90 1015.0
20260831125803 21 271 0.0 1.6 0.00 0.15 0.00 90 1014.9
20260831121802 21 271 1.6 4.8 0.00 0.15 0.00 91 1014.1
20260831121302 20 234 1.6 6.4 0.00 0.15 0.00 91 1013.9
20260831120802 20 186 1.6 6.4 0.00 0.15 0.00 91 1013.8
20260831120304 20 210 1.6 3.2 0.00 0.15 0.00 90 1013.9
20260831115803 20 192 0.0 1.6 0.00 0.61 0.00 90 1014.1
20260831115305 20 192 0.0 1.6 0.00 0.61 0.00 90 1014.2
20260831114802 20 192 0.0 1.6 0.00 0.61 0.00 91 1014.1
20260831114302 20 203 0.0 1.6 0.00 0.61 0.00 90 1014.1
20260831113803 20 204 0.0 1.6 0.00 0.61 0.00 90 1014.1
20260831113301 20 220 0.0 3.2 0.00 0.61 0.00 90 1014.0
20260831112801 20 41 0.0 1.6 0.00 0.61 0.00 90 1013.9
20260831112306 20 159 0.0 3.2 0.00 0.61 0.00 90 1013.8
20260831111802 20 159 1.6 3.2 0.00 0.61 0.00 90 1013.8
20260831111302 20 221 0.0 1.6 0.00 0.61 0.00 90 1013.8
20260831110802 20 221 0.0 1.6 0.00 0.61 0.00 90 1013.8
20260831110302 20 221 0.0 1.6 0.00 1.07 0.00 90 1013.8
20260831105801 20 221 0.0 4.8 0.00 1.07 0.00 90 1013.7
20260831105305 20 157 0.0 4.8 0.00 1.07 0.00 90 1013.7
20260831104801 20 163 1.6 4.8 0.00 1.07 0.00 90 1013.8
20260831104302 20 213 0.0 1.6 0.00 1.07 0.00 90 1013.8
20260831103801 20 336 0.0 1.6 0.00 1.07 0.00 90 1013.9
20260831103302 20 336 0.0 0.0 0.00 1.07 0.00 90 1013.9
20260831102802 20 336 0.0 0.0 0.00 1.07 0.00 90 1014.0
20260831102305 20 336 0.0 0.0 0.00 1.07 0.00 90 1014.1
20260831101802 20 336 0.0 0.0 0.00 1.07 0.00 90 1014.1
20260831101302 20 336 0.0 0.0 0.00 1.07 0.00 90 1014.2
20260831100802 20 336 0.0 0.0 0.00 1.07 0.00 90 1014.2
20260831100301 20 336 0.0 0.0 0.00 1.07 0.00 90 1014.3
20260831095802 20 336 0.0 0.0 0.00 1.07 0.00 90 1014.2
20260831095301 20 336 0.0 0.0 0.00 1.07 0.00 90 1014.3
20260831094801 20 336 0.0 0.0 0.00 1.07 0.00 90 1014.3
20260831094302 20 336 0.0 0.0 0.00 1.07 0.00 90 1014.4
20260831093801 20 336 0.0 0.0 0.00 1.07 0.00 90 1014.4
20260831093301 20 336 0.0 1.6 0.00 1.07 0.00 90 1014.4
20260831092802 20 336 0.0 1.6 0.00 1.07 0.00 90 1014.4
20260831092306 20 336 0.0 1.6 0.00 1.07 0.00 90 1014.4
20260831091556 20 347 0.0 1.6 0.00 1.07 0.00 90 1014.3
20260831091055 20 349 0.0 1.6 0.00 1.07 0.00 90 1014.3
20260831090555 20 266 0.0 1.6 0.00 1.07 0.00 90 1014.4
20260831090056 20 288 0.0 1.6 0.00 1.07 0.00 90 1014.4
20260831085556 20 276 0.0 1.6 0.00 1.07 0.00 90 1014.4
20260831085055 20 276 0.0 3.2 0.00 1.07 0.00 90 1014.3
20260831084555 20 326 0.0 3.2 0.00 1.07 0.00 90 1014.3
20260831084055 20 258 0.0 1.6 0.00 1.07 0.00 90 1014.2
20260831083555 20 258 0.0 1.6 0.00 1.07 0.00 90 1014.3
20260831083055 20 258 0.0 3.2 0.00 1.07 0.00 90 1014.3
20260831082555 20 276 1.6 3.2 0.00 1.07 0.00 90 1014.1
20260831082055 20 165 0.0 1.6 0.00 1.07 0.00 90 1014.1
20260831081556 20 159 0.0 3.2 0.00 1.07 0.00 90 1014.3
20260831081056 20 145 0.0 3.2 0.00 1.07 0.00 90 1014.1
20260831080555 20 46 0.0 1.6 0.00 1.07 0.00 90 1014.2
20260831080058 20 46 0.0 1.6 0.00 1.07 0.00 90 1014.3
20260831075556 20 61 0.0 1.6 0.00 1.07 0.00 90 1014.2
20260831075057 20 61 0.0 1.6 0.00 1.07 0.00 90 1014.2
20260831074557 20 61 0.0 1.6 0.00 1.07 0.00 90 1014.2
20260831074057 20 61 0.0 0.0 0.00 1.07 0.00 90 1014.2
20260831073556 20 61 0.0 0.0 0.00 1.07 0.00 90 1014.3
20260831073057 20 61 0.0 0.0 0.00 1.07 0.00 90 1014.3
20260831072556 20 61 0.0 1.6 0.00 1.07 0.00 90 1014.4
20260831072056 20 61 0.0 1.6 0.00 1.07 0.00 90 1014.3
20260831071556 20 55 0.0 0.0 0.00 1.07 0.00 90 1014.3
20260831071056 20 55 0.0 0.0 0.00 1.07 0.00 90 1014.4
20260831063056 20 82 0.0 3.2 0.00 1.07 0.00 90 1014.3
20260831062556 20 58 0.0 1.6 0.00 1.07 0.00 89 1014.3
20260831062056 20 55 0.0 1.6 0.00 1.07 0.00 89 1014.3
20260831061555 20 55 0.0 3.2 0.00 1.07 0.00 89 1014.2
20260831061055 20 55 0.0 3.2 0.00 1.07 0.00 89 1014.4
20260831060556 20 55 0.0 0.0 0.00 1.07 0.00 89 1014.5
20260831060056 20 55 0.0 0.0 0.00 1.07 0.00 89 1014.5
20260831055555 20 55 0.0 0.0 0.00 1.07 0.00 90 1014.6
20260831055055 20 55 0.0 1.6 0.00 1.07 0.00 90 1014.6
20260831054555 20 55 0.0 1.6 0.00 1.07 0.00 90 1014.6
20260831054055 20 55 0.0 1.6 0.00 1.07 0.00 90 1014.6
20260831053555 20 55 0.0 1.6 0.00 1.07 0.00 90 1014.6
20260831053055 20 55 0.0 1.6 0.00 1.07 0.00 90 1014.6
20260831052555 20 55 0.0 1.6 0.00 1.07 0.00 90 1014.7
20260831052055 20 55 0.0 3.2 0.00 1.07 0.00 90 1014.8
20260831051555 20 55 0.0 3.2 0.00 1.07 0.00 90 1014.8
20260831051055 20 59 0.0 3.2 0.00 1.07 0.00 89 1014.8
20260831050555 20 34 0.0 0.0 0.00 1.07 0.00 89 1014.9
20260831050059 20 34 0.0 3.2 0.00 1.07 0.00 89 1014.8
20260831045556 20 34 0.0 3.2 0.00 1.07 0.00 89 1014.8
20260831045057 20 162 0.0 0.0 0.00 1.07 0.00 89 1014.9
20260831044556 20 90 0.0 1.6 0.00 1.07 0.00 89 1014.9
20260831044057 20 90 0.0 1.6 0.00 1.07 0.00 89 1014.8
20260831043556 20 90 0.0 1.6 0.00 1.07 0.00 89 1014.7
20260831043057 20 90 0.0 3.2 0.00 1.07 0.00 89 1014.7
20260831042556 20 90 0.0 3.2 0.00 1.07 0.00 89 1014.6
20260831042056 20 97 0.0 3.2 0.00 1.07 0.00 89 1014.6
20260831041556 20 176 0.0 0.0 0.00 1.07 0.00 88 1014.6
20260831033556 21 176 0.0 1.6 0.00 1.07 1.07 88 1014.5
20260831033056 21 180 0.0 0.0 0.00 1.07 1.07 87 1014.7
20260831032556 21 180 0.0 0.0 0.00 1.07 1.07 87 1014.7
20260831032056 21 180 0.0 0.0 0.00 1.07 1.07 87 1014.8
20260831031557 21 180 0.0 0.0 0.00 1.07 1.07 87 1014.7
20260831031057 21 180 0.0 0.0 0.00 1.07 1.07 86 1014.7
20260831030557 21 180 0.0 0.0 0.00 1.07 1.07 86 1014.7
20260831030057 21 180 0.0 0.0 0.00 1.07 1.07 86 1014.7
20260831025557 21 180 0.0 0.0 0.00 1.07 1.07 86 1014.7
20260831025056 21 180 0.0 0.0 0.00 1.07 1.07 86 1014.6
20260831024556 22 180 0.0 0.0 0.00 1.07 1.07 86 1014.7
20260831024056 22 180 0.0 0.0 0.00 1.07 1.07 86 1014.7
20260831023557 22 180 0.0 0.0 0.00 1.07 1.07 86 1014.7
20260831023056 22 180 0.0 0.0 0.00 1.07 1.07 86 1014.6
20260831015057 22 179 0.0 4.8 0.00 1.09 1.07 84 1014.3
20260831014557 22 225 0.0 1.6 0.00 1.09 1.07 84 1014.3
20260831014058 22 223 0.0 1.6 0.00 1.09 1.07 83 1014.2
20260831013558 22 221 0.0 0.0 0.00 1.09 1.07 83 1014.1
20260831013058 22 222 0.0 0.0 0.00 1.09 1.07 82 1014.0
20260831012557 22 221 0.0 0.0 0.00 1.09 1.07 83 1014.1
20260831012058 23 221 0.0 0.0 0.00 1.09 1.07 83 1014.1
20260831011558 23 221 0.0 0.0 0.00 1.09 1.07 83 1014.0
20260831011059 23 222 0.0 1.6 0.00 1.09 1.07 83 1013.9
20260831010558 23 221 0.0 1.6 0.00 1.09 1.07 82 1013.7
20260831010057 23 222 0.0 0.0 0.00 1.09 1.07 82 1013.7
20260831005557 23 223 0.0 1.6 0.00 1.09 1.07 82 1013.6
20260831005056 23 354 0.0 3.2 0.00 1.09 1.07 82 1013.5
20260831004556 23 103 0.0 1.6 0.00 1.09 1.07 82 1013.5
20260831004056 23 201 0.0 3.2 0.00 1.09 1.07 81 1013.5
20260831003556 23 201 1.6 3.2 0.00 1.09 1.07 81 1013.5
20260831003056 23 215 0.0 4.8 0.00 1.09 1.07 81 1013.5
20260831002556 23 305 1.6 4.8 0.00 1.09 1.07 81 1013.6
20260831002056 23 182 1.6 3.2 0.00 1.09 1.07 80 1013.6
20260831001557 24 180 0.0 8.0 0.00 1.09 1.07 80 1013.6
20260831001056 24 244 0.0 8.0 0.00 1.09 1.07 80 1013.6
20260831000557 24 345 1.6 6.4 0.00 1.09 1.07 80 1013.6
20260831000059 24 296 3.2 8.0 0.00 1.09 1.07 80 1013.5
20260830235557 24 222 3.2 6.4 0.00 1.09 1.07 80 1013.6
20260830235057 24 228 4.8 6.4 0.00 1.09 1.07 80 1013.4
20260830234558 24 194 3.2 8.0 0.00 1.09 1.07 80 1013.4
20260830234057 24 220 1.6 4.8 0.00 1.09 1.07 80 1013.4
20260830233558 24 203 1.6 8.0 0.00 1.09 1.07 80 1013.4
20260830233057 24 282 1.6 11.3 0.00 1.09 1.07 79 1013.3
20260830232557 24 259 4.8 11.3 0.00 1.09 1.07 79 1013.2
20260830232057 24 334 1.6 8.0 0.00 1.09 1.07 79 1013.2
20260830231558 24 100 1.6 8.0 0.00 1.09 1.07 78 1013.2
20260830231057 25 319 3.2 17.7 0.00 1.09 1.07 78 1013.2
20260830230557 25 253 4.8 17.7 0.00 1.09 1.07 78 1013.2
20260830230057 25 259 3.2 16.1 0.00 1.09 1.07 77 1013.2
20260830225556 25 266 4.8 16.1 0.00 1.09 1.07 76 1013.2
20260830225056 25 205 6.4 16.1 0.00 1.09 1.07 76 1013.3
20260830224556 25 254 6.4 16.1 0.00 1.09 1.07 75 1013.3
20260830224056 25 219 4.8 14.5 0.00 1.09 1.07 75 1013.3
20260830223556 25 190 3.2 14.5 0.00 1.09 1.07 75 1013.3
20260830223057 25 237 6.4 16.1 0.00 1.09 1.07 74 1013.2
20260830222556 25 255 4.8 16.1 0.00 1.09 1.07 74 1013.2
20260830222056 26 222 6.4 12.9 0.00 1.09 1.07 73 1013.3
20260830221556 26 352 1.6 9.7 0.00 1.09 1.07 73 1013.3
20260830221056 26 276 4.8 19.3 0.00 1.09 1.07 72 1013.3
20260830220556 26 192 6.4 19.3 0.00 1.09 1.07 71 1013.3
20260830220056 26 293 8.0 19.3 0.00 1.09 1.07 71 1013.4
20260830215556 26 345 8.0 20.9 0.00 1.09 1.07 71 1013.3
20260830215056 26 217 3.2 20.9 0.00 1.09 1.07 72 1013.4
20260830214556 26 188 4.8 14.5 0.00 1.09 1.07 70 1013.5
20260830214056 26 231 6.4 17.7 0.00 1.09 1.07 69 1013.5
20260830213556 27 197 4.8 17.7 0.00 1.09 1.07 68 1013.4
20260830213056 27 305 3.2 16.1 0.00 1.09 1.07 70 1013.5
20260830212556 27 236 4.8 17.7 0.00 1.09 1.07 68 1013.4
20260830212031 27 313 4.8 20.9 0.00 1.09 1.07 67 1013.4
20260830211531 27 220 3.2 19.3 0.00 1.09 1.07 69 1013.5
20260830211031 27 281 3.2 14.5 0.00 1.09 1.07 70 1013.5
20260830210531 27 11 3.2 14.5 0.00 1.09 1.07 71 1013.6
20260830210032 27 191 1.6 12.9 0.00 1.09 1.07 73 1013.7
20260830205531 27 232 4.8 14.5 0.00 1.09 1.07 71 1013.7
20260830205032 27 201 3.2 14.5 0.00 1.09 1.07 70 1013.7
20260830204532 27 182 6.4 14.5 0.00 1.09 1.07 69 1013.8
20260830204032 28 175 3.2 16.1 0.00 1.09 1.07 70 1013.7
20260830203533 28 214 6.4 16.1 0.00 1.09 1.07 70 1013.6
20260830203032 28 353 6.4 16.1 0.00 1.09 1.07 71 1013.6
20260830202532 28 224 4.8 14.5 0.00 1.09 1.07 70 1013.7
20260830202032 28 230 4.8 17.7 0.00 1.09 1.07 71 1013.7
20260830201532 28 237 6.4 17.7 0.00 1.09 1.07 70 1013.9
20260830201032 28 211 3.2 20.9 0.00 1.09 1.07 73 1013.9
20260830200532 28 195 8.0 14.5 0.00 1.09 1.07 70 1013.9
20260830200033 27 271 8.0 16.1 0.00 1.09 1.07 71 1014.0
20260830195532 27 259 6.4 20.9 0.00 1.09 1.07 71 1014.0
20260830195032 27 313 6.4 17.7 0.00 1.09 1.07 71 1014.1
20260830194532 27 232 8.0 12.9 0.00 1.09 1.07 71 1014.1
20260830194032 27 18 4.8 19.3 0.00 1.09 1.07 73 1014.1
20260830193532 27 196 6.4 19.3 0.00 1.09 1.07 72 1013.9
20260830193032 27 143 6.4 20.9 0.00 1.09 1.07 73 1013.8
20260830192532 27 124 6.4 19.3 0.00 1.09 1.07 72 1013.7
20260830192032 27 189 4.8 19.3 0.00 1.09 1.07 72 1013.7
20260830191532 27 171 8.0 19.3 0.00 1.09 1.07 71 1013.7
20260830191031 27 176 8.0 17.7 0.00 1.09 1.07 72 1013.8
20260830190532 27 225 6.4 12.9 0.00 1.09 1.07 74 1013.8
20260830190034 27 221 6.4 17.7 0.00 1.09 1.07 73 1013.8
20260830185532 26 122 8.0 17.7 0.00 1.09 1.07 73 1013.6
20260830185033 26 179 8.0 16.1 0.00 1.09 1.07 73 1013.6
20260830184532 26 253 8.0 17.7 0.00 1.09 1.07 73 1013.5
20260830184032 26 132 4.8 17.7 0.00 1.09 1.07 74 1013.6
20260830183532 26 195 8.0 17.7 0.00 1.09 1.07 73 1013.5
20260830183031 26 201 8.0 16.1 0.00 1.09 1.07 75 1013.7
20260830182532 26 312 4.8 16.1 0.00 1.09 1.07 74 1013.6